Weather History for KBJN - February, 2013

Change the Weather History Date:

Monday, February 11, 2013

  Actual Average Record
Temperature  
Mean Temperature 24 °F -  
Max Temperature 32 °F - - ()
Min Temperature 15 °F - - ()
Degree Days  
Heating Degree Days 42    
Moisture  
Dew Point 9 °F    
Average Humidity 56    
Maximum Humidity 70    
Minimum Humidity 36    
Precipitation  
Precipitation 0.00 in - - ()
Sea Level Pressure  
Sea Level Pressure 30.31 in    
Wind  
Wind Speed 10 mph (NNW)    
Max Wind Speed 21 mph    
Max Gust Speed 25 mph    
Visibility 10 miles    
Events      
T = Trace of Precipitation, MM = Missing Value Source: NWS Daily Summary

Daily Weather History Graph

Daily Weather History Graph

Search for Another Location

Airport or City:

Trip Planner

Search our weather history database for the weather conditions in past years. The results will help you decide how hot, cold, wet, or windy it might be!

Date:

Astronomy

Feb. 11, 2013 Rise Set
Actual Time 6:38 AM PST 5:20 PM PST
Civil Twilight 6:11 AM PST 5:47 PM PST
Nautical Twilight 5:40 AM PST 6:18 PM PST
Astronomical Twilight 5:10 AM PST 6:48 PM PST
Moon 7:08 AM PST (2/11) 7:18 PM PST (2/11)
Length of Visible Light 11h 35m
Length of Day
10h 41m
Waxing Crescent, 3% of the Moon is Illuminated
Feb 11
Waxing Crescent
Feb 17
First Quarter
Feb 25
Full
Mar 4
Last Quarter
Mar 11
New

Hourly Weather History & Observations

Time (PST) Temp. Windchill Dew Point Humidity Pressure Visibility Wind Dir Wind Speed Gust Speed Precip Events Conditions
12:56 AM 19.9 °F 10.1 °F 10.9 °F 68% 30.25 in 10.0 mi NNW 8.1 mph - N/A   Clear
1:56 AM 19.0 °F 7.5 °F 10.0 °F 68% 30.25 in 10.0 mi WNW 10.4 mph - N/A   Clear
2:20 AM 17.6 °F 8.2 °F 8.6 °F 68% 30.00 in 10.0 mi NW 6.9 mph - N/A   Partly Cloudy
2:56 AM 19.0 °F 6.8 °F 9.0 °F 65% 30.26 in 10.0 mi NW 11.5 mph - N/A   Clear
3:56 AM 19.0 °F 5.6 °F 9.0 °F 65% 30.25 in 10.0 mi North 13.8 mph - N/A   Clear
4:56 AM 16.0 °F 10.4 °F 7.0 °F 68% 30.26 in 10.0 mi WNW 3.5 mph - N/A   Clear
6:56 AM 15.1 °F 6.4 °F 7.0 °F 70% 30.29 in 10.0 mi North 5.8 mph - N/A   Clear
7:56 AM 21.0 °F 14.6 °F 9.0 °F 60% 30.30 in 10.0 mi NE 4.6 mph - N/A   Clear
8:56 AM 24.1 °F 11.5 °F 8.1 °F 51% 30.32 in 10.0 mi North 15.0 mph - N/A   Clear
9:56 AM 26.1 °F 15.0 °F 7.0 °F 44% 30.33 in 10.0 mi North 12.7 mph - N/A   Clear
10:56 AM 28.9 °F 16.9 °F 6.1 °F 38% 30.34 in 10.0 mi North 17.3 mph - N/A   Clear
11:56 AM 30.0 °F 17.2 °F 7.0 °F 38% 30.33 in 10.0 mi North 20.7 mph 25.3 mph N/A   Clear
12:56 PM 30.0 °F 18.3 °F 6.1 °F 36% 30.32 in 10.0 mi North 17.3 mph - N/A   Clear
1:56 PM 30.9 °F 20.2 °F 9.0 °F 40% 30.32 in 10.0 mi NNE 15.0 mph 21.9 mph N/A   Clear
2:56 PM 32.0 °F 21.2 °F 10.9 °F 42% 30.32 in 10.0 mi North 16.1 mph - N/A   Clear
3:56 PM 30.9 °F 20.7 °F 10.9 °F 43% 30.32 in 10.0 mi North 13.8 mph - N/A   Clear
4:56 PM 28.9 °F 18.2 °F 10.9 °F 47% 30.33 in 10.0 mi NNE 13.8 mph - N/A   Clear
5:56 PM 23.0 °F 18.4 °F 12.0 °F 63% 30.35 in 10.0 mi West 3.5 mph - N/A   Clear
6:56 PM 21.9 °F 13.4 °F 10.9 °F 63% 30.38 in 10.0 mi NW 6.9 mph - N/A   Clear
7:56 PM 24.1 °F 13.7 °F 10.9 °F 57% 30.38 in 10.0 mi North 10.4 mph - N/A   Clear
8:56 PM 23.0 °F 10.1 °F 10.9 °F 60% 30.40 in 10.0 mi NNW 15.0 mph - N/A   Clear
9:56 PM 18.0 °F 4.8 °F 9.0 °F 68% 30.41 in 10.0 mi NNW 12.7 mph - N/A   Clear
10:56 PM 19.9 °F 7.9 °F 10.0 °F 65% 30.40 in 10.0 mi North 11.5 mph - N/A   Clear
11:56 PM 18.0 °F 12.7 °F 8.1 °F 65% 30.42 in 10.0 mi West 3.5 mph - N/A   Clear